DEPWI EDXW-EDDH

Flight info

Callsign DEPWI
Flight time 0h 52m
Altitude 2000
Route VFR
Aircraft DA40/L-SDE3FGHIRWY/LB1

Departure

Time 2026-05-04 16:34
Airport Westerland Sylt Airport (EDXW)

Arrival

Time 2026-05-04 17:26
Airport Hamburg Helmut Schmidt Airport (EDDH)
Time Latitude Longitude Altitude Speed Heading
2026-05-04 16:22 54.91278 8.32476 53 ft 0 kts 245°
2026-05-04 16:28 54.91287 8.32526 53 ft 1 kts 57°
2026-05-04 16:31 54.91187 8.32645 53 ft 22 kts 135°
2026-05-04 16:31 54.91078 8.32876 53 ft 3 kts 133°
2026-05-04 16:32 54.91023 8.33149 52 ft 0 kts 60°
2026-05-04 16:33 54.91025 8.33155 52 ft 5 kts 60°
2026-05-04 16:33 54.91483 8.34466 197 ft 98 kts 52°
2026-05-04 16:34 54.92191 8.36466 992 ft 99 kts 63°
2026-05-04 16:34 54.91912 8.37692 1242 ft 119 kts 130°
2026-05-04 16:35 54.90143 8.41080 1423 ft 136 kts 131°
2026-05-04 16:35 54.87890 8.43567 1412 ft 127 kts 158°
2026-05-04 16:36 54.87096 8.44192 1388 ft 127 kts 158°
2026-05-04 16:36 54.85507 8.45491 1363 ft 125 kts 157°
2026-05-04 16:37 54.83928 8.46765 1357 ft 126 kts 158°
2026-05-04 16:37 54.83130 8.47403 1354 ft 126 kts 158°
2026-05-04 16:37 54.81540 8.48660 1354 ft 125 kts 158°
2026-05-04 16:38 54.80058 8.49848 1597 ft 107 kts 158°
2026-05-04 16:39 54.77995 8.51553 1822 ft 113 kts 157°
2026-05-04 16:39 54.76568 8.52723 1984 ft 114 kts 158°
2026-05-04 16:40 54.75069 8.53956 1997 ft 122 kts 158°
2026-05-04 16:40 54.73512 8.55241 1989 ft 126 kts 158°
2026-05-04 16:41 54.71933 8.56569 1991 ft 127 kts 157°
2026-05-04 16:41 54.69555 8.58531 1989 ft 126 kts 158°
2026-05-04 16:42 54.67175 8.60520 1993 ft 126 kts 158°
2026-05-04 16:43 54.65596 8.61788 1995 ft 126 kts 158°
2026-05-04 16:43 54.64002 8.63068 1988 ft 126 kts 157°
2026-05-04 16:43 54.63204 8.63709 1991 ft 127 kts 158°
2026-05-04 16:44 54.60039 8.66346 1986 ft 125 kts 158°
2026-05-04 16:45 54.58473 8.67671 1982 ft 126 kts 158°
2026-05-04 16:46 54.56068 8.69676 1991 ft 131 kts 157°
2026-05-04 16:46 54.54429 8.71008 1990 ft 130 kts 158°
2026-05-04 16:47 54.52811 8.72356 1984 ft 128 kts 157°
2026-05-04 16:47 54.51222 8.73663 1984 ft 125 kts 158°
2026-05-04 16:48 54.48862 8.75542 1984 ft 126 kts 158°
2026-05-04 16:48 54.48078 8.76178 1975 ft 127 kts 157°
2026-05-04 16:49 54.46475 8.77517 1984 ft 128 kts 158°
2026-05-04 16:49 54.44862 8.78826 1987 ft 129 kts 158°
2026-05-04 16:50 54.43233 8.80159 1984 ft 132 kts 158°
2026-05-04 16:50 54.41581 8.81531 1975 ft 131 kts 158°
2026-05-04 16:51 54.39953 8.82872 1975 ft 129 kts 158°
2026-05-04 16:51 54.39150 8.83518 1972 ft 126 kts 158°
2026-05-04 16:51 54.37569 8.84802 1968 ft 126 kts 158°
2026-05-04 16:52 54.35994 8.86082 1969 ft 126 kts 155°
2026-05-04 16:52 54.35275 8.86944 1969 ft 126 kts 145°
2026-05-04 16:53 54.33860 8.88724 1967 ft 126 kts 146°
2026-05-04 16:53 54.31720 8.91430 1968 ft 128 kts 146°
2026-05-04 16:54 54.31007 8.92339 1975 ft 127 kts 146°
2026-05-04 16:55 54.28214 8.95913 1970 ft 122 kts 146°
2026-05-04 16:55 54.26851 8.97642 1967 ft 121 kts 146°
2026-05-04 16:56 54.25497 8.99333 1958 ft 120 kts 146°
2026-05-04 16:56 54.23469 9.01882 1965 ft 121 kts 146°
2026-05-04 16:57 54.22792 9.02732 1969 ft 121 kts 146°
2026-05-04 16:57 54.21425 9.04455 1972 ft 123 kts 146°
2026-05-04 16:58 54.19357 9.07072 1974 ft 123 kts 146°
2026-05-04 16:58 54.18663 9.07938 1974 ft 124 kts 146°
2026-05-04 16:59 54.17286 9.09680 1974 ft 124 kts 146°
2026-05-04 17:00 54.14499 9.13131 1969 ft 124 kts 146°
2026-05-04 17:00 54.12404 9.15703 1970 ft 124 kts 146°
2026-05-04 17:01 54.10998 9.17476 1980 ft 127 kts 146°
2026-05-04 17:01 54.09552 9.19261 1983 ft 128 kts 146°
2026-05-04 17:02 54.08102 9.21046 1982 ft 129 kts 146°
2026-05-04 17:02 54.06661 9.22812 1977 ft 126 kts 146°
2026-05-04 17:03 54.05952 9.23676 1973 ft 125 kts 146°
2026-05-04 17:03 54.05392 9.24761 1966 ft 124 kts 123°
2026-05-04 17:03 54.04404 9.27217 1975 ft 127 kts 125°
2026-05-04 17:04 54.03386 9.29761 1979 ft 130 kts 124°
2026-05-04 17:04 54.02361 9.32245 1977 ft 128 kts 125°
2026-05-04 17:05 54.01340 9.34733 1985 ft 130 kts 124°
2026-05-04 17:05 54.00436 9.37388 1983 ft 129 kts 116°
2026-05-04 17:06 53.99636 9.40148 1975 ft 130 kts 115°
2026-05-04 17:06 53.99242 9.41496 1977 ft 128 kts 116°
2026-05-04 17:07 53.98457 9.44199 1976 ft 127 kts 116°
2026-05-04 17:07 53.98199 9.45096 1976 ft 127 kts 116°
2026-05-04 17:07 53.97675 9.46918 1962 ft 128 kts 115°
2026-05-04 17:07 53.97291 9.48264 1962 ft 125 kts 116°
2026-05-04 17:08 53.96914 9.49596 1970 ft 125 kts 116°
2026-05-04 17:08 53.96148 9.52250 1975 ft 127 kts 116°
2026-05-04 17:08 53.95757 9.53602 1974 ft 127 kts 116°
2026-05-04 17:09 53.95376 9.54945 1977 ft 125 kts 116°
2026-05-04 17:09 53.95001 9.56267 1957 ft 123 kts 116°
2026-05-04 17:09 53.94633 9.57582 1963 ft 123 kts 116°
2026-05-04 17:10 53.93895 9.60184 1969 ft 124 kts 116°
2026-05-04 17:10 53.93145 9.64267 1970 ft 119 kts 103°
2026-05-04 17:11 53.92955 9.65647 1969 ft 121 kts 102°
2026-05-04 17:11 53.92749 9.67046 1968 ft 123 kts 103°
2026-05-04 17:11 53.92330 9.69878 1971 ft 124 kts 103°
2026-05-04 17:12 53.92117 9.71294 1971 ft 122 kts 103°
2026-05-04 17:12 53.91691 9.74117 1971 ft 123 kts 103°
2026-05-04 17:13 53.91068 9.78264 1966 ft 123 kts 103°
2026-05-04 17:14 53.90424 9.82486 1969 ft 122 kts 103°
2026-05-04 17:14 53.90217 9.83893 1971 ft 123 kts 103°
2026-05-04 17:14 53.89579 9.86562 1969 ft 124 kts 124°
2026-05-04 17:15 53.89105 9.87784 1963 ft 124 kts 123°
2026-05-04 17:15 53.88161 9.90266 1958 ft 125 kts 123°
2026-05-04 17:16 53.87237 9.92738 1961 ft 124 kts 123°
2026-05-04 17:16 53.85751 9.96538 1745 ft 131 kts 132°
2026-05-04 17:17 53.85092 9.97667 1558 ft 138 kts 136°
2026-05-04 17:17 53.83026 10.00796 1456 ft 129 kts 159°
2026-05-04 17:18 53.82484 10.01205 1449 ft 129 kts 157°
2026-05-04 17:18 53.80878 10.02442 1446 ft 124 kts 159°
2026-05-04 17:19 53.79264 10.03400 1445 ft 124 kts 165°
2026-05-04 17:19 53.77618 10.04302 1446 ft 123 kts 165°
2026-05-04 17:20 53.76012 10.05176 1449 ft 122 kts 165°
2026-05-04 17:20 53.74379 10.05996 1448 ft 124 kts 167°
2026-05-04 17:20 53.73533 10.06223 1448 ft 123 kts 173°
2026-05-04 17:21 53.71853 10.06689 1443 ft 123 kts 174°
2026-05-04 17:21 53.70198 10.07163 1459 ft 121 kts 174°
2026-05-04 17:22 53.69356 10.07411 1454 ft 125 kts 173°
2026-05-04 17:22 53.68501 10.07652 1380 ft 127 kts 173°
2026-05-04 17:23 53.66733 10.06538 1056 ft 79 kts 236°
2026-05-04 17:23 53.66397 10.05855 950 ft 72 kts 238°
2026-05-04 17:23 53.65795 10.04442 882 ft 79 kts 237°
2026-05-04 17:24 53.65419 10.03738 745 ft 85 kts 235°
2026-05-04 17:24 53.64401 10.01579 318 ft 64 kts 232°
2026-05-04 17:25 53.64107 10.01026 241 ft 65 kts 242°
2026-05-04 17:25 53.63483 9.99736 66 ft 72 kts 240°
2026-05-04 17:26 53.62949 9.98659 40 ft 41 kts 245°
2026-05-04 17:26 53.62692 9.98510 41 ft 0 kts 100°
2026-05-04 17:29 53.62722 9.98614 41 ft 10 kts 50°
2026-05-04 17:30 53.62694 9.98720 41 ft 7 kts 65°
2026-05-04 17:31 53.62701 9.98706 41 ft 1 kts 200°
2026-05-04 17:31 53.62700 9.98705 41 ft 0 kts 192°